| time (UTC) | temp F | wind direction | speed MPH | gust MPH | rain 1hr in | rain 24hr in | rain mn in | humidity % | barometer mb |
| 20260507081458 | 37 | 247 | 0.0 | 0.0 | 0.00 | 0.41 | 0.00 | 96 | 1013.3 |
| 20260507080005 | 38 | 247 | 0.0 | 0.0 | 0.00 | 0.41 | 0.00 | 96 | 1013.2 |
| 20260507074458 | 38 | 247 | 0.0 | 0.0 | 0.00 | 0.52 | 0.00 | 95 | 1013.0 |
| 20260507072959 | 39 | 247 | 0.0 | 0.0 | 0.00 | 0.52 | 0.00 | 95 | 1013.3 |
| 20260507071459 | 39 | 247 | 1.0 | 2.0 | 0.00 | 0.52 | 0.00 | 95 | 1013.1 |
| 20260507064458 | 41 | 247 | 0.0 | 0.0 | 0.00 | 0.63 | 0.00 | 95 | 1013.3 |
| 20260507061458 | 42 | 247 | 0.0 | 0.0 | 0.00 | 0.63 | 0.00 | 95 | 1013.4 |
| 20260507060001 | 42 | 247 | 0.0 | 2.0 | 0.00 | 0.63 | 0.00 | 95 | 1013.3 |
| 20260507054457 | 42 | 247 | 0.0 | 0.0 | 0.00 | 0.79 | 0.00 | 95 | 1013.6 |
| 20260507052958 | 42 | 247 | 0.0 | 1.0 | 0.00 | 0.79 | 0.00 | 95 | 1013.7 |
| 20260507051457 | 42 | 247 | 0.0 | 1.0 | 0.00 | 0.79 | 0.00 | 95 | 1013.9 |
| 20260507050000 | 42 | 247 | 0.0 | 0.0 | 0.00 | 0.79 | 0.00 | 95 | 1013.9 |
| 20260507044457 | 42 | 247 | 0.0 | 0.0 | 0.00 | 0.92 | 0.00 | 95 | 1014.0 |
| 20260507042958 | 42 | 247 | 0.0 | 1.0 | 0.00 | 0.92 | 0.00 | 95 | 1014.0 |
| 20260507041457 | 42 | 247 | 0.0 | 0.0 | 0.00 | 0.92 | 0.00 | 95 | 1014.0 |
| 20260507040007 | 42 | 247 | 0.0 | 1.0 | 0.00 | 0.92 | 0.00 | 95 | 1013.9 |
| 20260507034501 | 42 | 247 | 0.0 | 1.0 | 0.00 | 0.98 | 0.92 | 95 | 1013.7 |
| 20260507033002 | 42 | 247 | 1.0 | 2.0 | 0.00 | 0.98 | 0.92 | 95 | 1013.8 |
| 20260507031502 | 43 | 276 | 1.0 | 4.0 | 0.00 | 0.98 | 0.92 | 96 | 1013.9 |
| 20260507030005 | 43 | 248 | 1.0 | 6.0 | 0.00 | 0.98 | 0.92 | 96 | 1013.7 |
| 20260507021501 | 43 | 247 | 2.0 | 5.0 | 0.00 | 0.98 | 0.92 | 96 | 1013.6 |
| 20260507020005 | 43 | 203 | 1.0 | 3.0 | 0.00 | 0.98 | 0.92 | 95 | 1013.8 |
| 20260507014500 | 43 | 234 | 1.0 | 3.0 | 0.00 | 1.03 | 0.92 | 95 | 1013.7 |
| 20260507013000 | 42 | 247 | 1.0 | 5.0 | 0.00 | 1.03 | 0.92 | 95 | 1013.5 |
| 20260507011501 | 42 | 273 | 1.0 | 4.0 | 0.00 | 1.03 | 0.92 | 95 | 1013.8 |
| 20260507010004 | 42 | 246 | 2.0 | 6.0 | 0.00 | 1.03 | 0.92 | 95 | 1013.7 |
| 20260507004501 | 42 | 284 | 2.0 | 7.0 | 0.00 | 1.07 | 0.92 | 95 | 1013.5 |
| 20260507003001 | 43 | 321 | 2.0 | 7.0 | 0.00 | 1.07 | 0.92 | 94 | 1013.2 |
| 20260507000004 | 43 | 273 | 3.0 | 6.0 | 0.05 | 1.07 | 0.92 | 94 | 1012.8 |
| 20260506234500 | 44 | 333 | 3.0 | 5.0 | 0.10 | 1.10 | 0.92 | 93 | 1012.3 |
| 20260506233001 | 44 | 320 | 4.0 | 9.0 | 0.13 | 1.10 | 0.92 | 93 | 1012.4 |
| 20260506231500 | 46 | 263 | 5.0 | 15.0 | 0.10 | 1.07 | 0.89 | 91 | 1012.2 |
| 20260506230003 | 48 | 12 | 1.0 | 2.0 | 0.08 | 1.05 | 0.87 | 93 | 1011.5 |
| 20260506224501 | 49 | 12 | 0.0 | 2.0 | 0.03 | 1.04 | 0.82 | 91 | 1011.1 |
| 20260506223000 | 49 | 117 | 1.0 | 2.0 | 0.00 | 1.01 | 0.79 | 89 | 1010.9 |
| 20260506221501 | 50 | 117 | 0.0 | 0.0 | 0.00 | 1.01 | 0.79 | 86 | 1010.9 |
| 20260506220006 | 50 | 117 | 0.0 | 3.0 | 0.00 | 1.01 | 0.79 | 84 | 1010.7 |
| 20260506214501 | 50 | 117 | 1.0 | 4.0 | 0.00 | 1.07 | 0.79 | 84 | 1010.6 |
| 20260506213000 | 50 | 171 | 2.0 | 3.0 | 0.00 | 1.07 | 0.79 | 83 | 1010.6 |
| 20260506210003 | 50 | 87 | 1.0 | 3.0 | 0.00 | 1.07 | 0.79 | 84 | 1010.8 |
| 20260506203000 | 49 | 99 | 1.0 | 3.0 | 0.00 | 1.07 | 0.79 | 84 | 1011.1 |
| 20260506200003 | 49 | 207 | 1.0 | 4.0 | 0.00 | 1.07 | 0.79 | 83 | 1010.8 |
| 20260506194500 | 49 | 181 | 2.0 | 5.0 | 0.00 | 1.07 | 0.79 | 83 | 1011.0 |
| 20260506193000 | 49 | 274 | 1.0 | 4.0 | 0.00 | 1.07 | 0.79 | 84 | 1010.9 |
| 20260506191500 | 48 | 327 | 1.0 | 3.0 | 0.00 | 1.07 | 0.79 | 85 | 1010.9 |
| 20260506190004 | 48 | 327 | 1.0 | 3.0 | 0.00 | 1.07 | 0.79 | 85 | 1011.1 |
| 20260506184500 | 48 | 308 | 2.0 | 3.0 | 0.00 | 1.07 | 0.79 | 87 | 1011.2 |
| 20260506183000 | 47 | 5 | 1.0 | 3.0 | 0.00 | 1.07 | 0.79 | 88 | 1011.2 |
| 20260506181501 | 47 | 346 | 2.0 | 5.0 | 0.01 | 1.07 | 0.79 | 87 | 1011.1 |
| 20260506180005 | 47 | 21 | 2.0 | 4.0 | 0.01 | 1.07 | 0.79 | 87 | 1011.3 |
| 20260506174500 | 47 | 18 | 2.0 | 4.0 | 0.01 | 1.07 | 0.79 | 89 | 1011.3 |
| 20260506171500 | 47 | 309 | 2.0 | 5.0 | 0.00 | 1.06 | 0.78 | 89 | 1010.6 |
| 20260506164502 | 46 | 55 | 1.0 | 4.0 | 0.00 | 1.06 | 0.78 | 92 | 1010.6 |
| 20260506163000 | 46 | 348 | 1.0 | 4.0 | 0.00 | 1.06 | 0.78 | 93 | 1010.6 |
| 20260506161500 | 45 | 319 | 1.0 | 4.0 | 0.00 | 1.06 | 0.78 | 94 | 1010.6 |
| 20260506160002 | 45 | 9 | 2.0 | 4.0 | 0.00 | 1.06 | 0.78 | 94 | 1010.5 |
| 20260506153000 | 45 | 12 | 2.0 | 4.0 | 0.00 | 1.06 | 0.78 | 94 | 1010.4 |
| 20260506151459 | 45 | 13 | 2.0 | 4.0 | 0.00 | 1.06 | 0.78 | 95 | 1010.2 |
| 20260506150005 | 45 | 43 | 1.0 | 4.0 | 0.00 | 1.06 | 0.78 | 94 | 1010.1 |
| 20260506144500 | 44 | 56 | 2.0 | 4.0 | 0.01 | 1.06 | 0.78 | 95 | 1010.2 |
| 20260506142959 | 44 | 86 | 2.0 | 6.0 | 0.01 | 1.06 | 0.78 | 94 | 1010.1 |
| 20260506141459 | 44 | 81 | 2.0 | 4.0 | 0.03 | 1.06 | 0.78 | 95 | 1010.1 |
| 20260506140002 | 44 | 80 | 2.0 | 5.0 | 0.04 | 1.06 | 0.78 | 95 | 1010.0 |
| 20260506134459 | 44 | 29 | 1.0 | 4.0 | 0.04 | 1.05 | 0.77 | 95 | 1009.9 |
| 20260506132959 | 44 | 77 | 3.0 | 5.0 | 0.05 | 1.05 | 0.77 | 95 | 1010.0 |
| 20260506131459 | 44 | 155 | 2.0 | 5.0 | 0.04 | 1.03 | 0.75 | 95 | 1009.8 |
| 20260506130005 | 44 | 78 | 2.0 | 4.0 | 0.03 | 1.02 | 0.74 | 95 | 1009.8 |
| 20260506124501 | 44 | 77 | 2.0 | 4.0 | 0.03 | 1.01 | 0.73 | 95 | 1009.8 |
| 20260506122959 | 44 | 71 | 2.0 | 5.0 | 0.03 | 1.00 | 0.72 | 96 | 1009.7 |
| 20260506121459 | 44 | 92 | 1.0 | 4.0 | 0.04 | 0.99 | 0.71 | 95 | 1009.6 |
| 20260506120005 | 43 | 92 | 3.0 | 6.0 | 0.04 | 0.99 | 0.71 | 95 | 1009.7 |
| 20260506114500 | 44 | 71 | 3.0 | 5.0 | 0.04 | 0.98 | 0.70 | 95 | 1009.9 |
| 20260506113000 | 44 | 109 | 2.0 | 5.0 | 0.05 | 0.97 | 0.69 | 96 | 1009.7 |
| 20260506111459 | 44 | 45 | 2.0 | 6.0 | 0.04 | 0.95 | 0.67 | 96 | 1009.6 |
| 20260506110002 | 44 | 88 | 2.0 | 9.0 | 0.05 | 0.94 | 0.66 | 96 | 1009.4 |
| 20260506104459 | 44 | 13 | 2.0 | 5.0 | 0.06 | 0.94 | 0.66 | 96 | 1009.1 |
| 20260506102959 | 44 | 73 | 2.0 | 6.0 | 0.06 | 0.92 | 0.64 | 96 | 1009.4 |
| 20260506101458 | 44 | 73 | 1.0 | 3.0 | 0.07 | 0.91 | 0.63 | 96 | 1009.7 |
| 20260506100001 | 44 | 55 | 2.0 | 5.0 | 0.05 | 0.89 | 0.61 | 96 | 1009.6 |
| 20260506094459 | 44 | 102 | 2.0 | 7.0 | 0.05 | 0.88 | 0.60 | 96 | 1009.6 |
| 20260506092959 | 44 | 319 | 1.0 | 5.0 | 0.04 | 0.86 | 0.58 | 96 | 1009.8 |
| 20260506091459 | 45 | 40 | 1.0 | 7.0 | 0.04 | 0.84 | 0.56 | 96 | 1009.4 |
| 20260506090001 | 45 | 74 | 1.0 | 3.0 | 0.05 | 0.84 | 0.56 | 96 | 1009.4 |
| 20260506084458 | 45 | 313 | 2.0 | 5.0 | 0.06 | 0.83 | 0.55 | 96 | 1009.5 |
| 20260506082959 | 45 | 27 | 1.0 | 4.0 | 0.08 | 0.82 | 0.54 | 96 | 1009.6 |